﻿測定場所 (Monitoring sites),日付 (Measurement date),時間 (Measurement time),線量率 最大値 (max) μGy/h,線量率 最小値 (min) μGy/h,線量率 平均値 (average) μGy/h,
江戸川 (Edogawa),2016-04-17,23:01～24:00,0.0590,0.0527,0.0562,
江戸川 (Edogawa),2016-04-17,22:01～23:00,0.0596,0.0521,0.0563,
江戸川 (Edogawa),2016-04-17,21:01～22:00,0.0597,0.0525,0.0558,
江戸川 (Edogawa),2016-04-17,20:01～21:00,0.0603,0.0515,0.0565,
江戸川 (Edogawa),2016-04-17,19:01～20:00,0.0588,0.0529,0.0562,
江戸川 (Edogawa),2016-04-17,18:01～19:00,0.0592,0.0531,0.0562,
江戸川 (Edogawa),2016-04-17,17:01～18:00,0.0598,0.0532,0.0560,
江戸川 (Edogawa),2016-04-17,16:01～17:00,0.0625,0.0529,0.0568,
江戸川 (Edogawa),2016-04-17,15:01～16:00,0.0603,0.0549,0.0575,
江戸川 (Edogawa),2016-04-17,14:01～15:00,0.0658,0.0571,0.0609,
江戸川 (Edogawa),2016-04-17,13:01～14:00,0.0705,0.0601,0.0665,
江戸川 (Edogawa),2016-04-17,12:01～13:00,0.0657,0.0564,0.0598,
江戸川 (Edogawa),2016-04-17,11:01～12:00,0.0624,0.0555,0.0590,
江戸川 (Edogawa),2016-04-17,10:01～11:00,0.0624,0.0552,0.0583,
江戸川 (Edogawa),2016-04-17,09:01～10:00,0.0605,0.0544,0.0576,
江戸川 (Edogawa),2016-04-17,08:01～09:00,0.0597,0.0535,0.0574,
江戸川 (Edogawa),2016-04-17,07:01～08:00,0.0604,0.0540,0.0567,
江戸川 (Edogawa),2016-04-17,06:01～07:00,0.0592,0.0529,0.0571,
江戸川 (Edogawa),2016-04-17,05:01～06:00,0.0612,0.0532,0.0565,
江戸川 (Edogawa),2016-04-17,04:01～05:00,0.0599,0.0533,0.0568,
江戸川 (Edogawa),2016-04-17,03:01～04:00,0.0604,0.0535,0.0570,
江戸川 (Edogawa),2016-04-17,02:01～03:00,0.0607,0.0541,0.0573,
江戸川 (Edogawa),2016-04-17,01:01～02:00,0.0624,0.0544,0.0571,
江戸川 (Edogawa),2016-04-17,00:01～01:00,0.0604,0.0539,0.0569,
江戸川 (Edogawa),2016-04-16,23:01～24:00,0.0604,0.0546,0.0570,
江戸川 (Edogawa),2016-04-16,22:01～23:00,0.0603,0.0533,0.0569,
江戸川 (Edogawa),2016-04-16,21:01～22:00,0.0604,0.0519,0.0574,
江戸川 (Edogawa),2016-04-16,20:01～21:00,0.0615,0.0541,0.0573,
江戸川 (Edogawa),2016-04-16,19:01～20:00,0.0603,0.0535,0.0575,
江戸川 (Edogawa),2016-04-16,18:01～19:00,0.0617,0.0538,0.0576,
江戸川 (Edogawa),2016-04-16,17:01～18:00,0.0607,0.0542,0.0576,
江戸川 (Edogawa),2016-04-16,16:01～17:00,0.0609,0.0543,0.0573,
江戸川 (Edogawa),2016-04-16,15:01～16:00,0.0610,0.0530,0.0572,
江戸川 (Edogawa),2016-04-16,14:01～15:00,0.0609,0.0540,0.0574,
江戸川 (Edogawa),2016-04-16,13:01～14:00,0.0607,0.0541,0.0571,
江戸川 (Edogawa),2016-04-16,12:01～13:00,0.0615,0.0543,0.0576,
江戸川 (Edogawa),2016-04-16,11:01～12:00,0.0612,0.0536,0.0571,
江戸川 (Edogawa),2016-04-16,10:01～11:00,0.0596,0.0544,0.0569,
江戸川 (Edogawa),2016-04-16,09:01～10:00,0.0612,0.0531,0.0572,
江戸川 (Edogawa),2016-04-16,08:01～09:00,0.0608,0.0546,0.0572,
江戸川 (Edogawa),2016-04-16,07:01～08:00,0.0600,0.0532,0.0567,
江戸川 (Edogawa),2016-04-16,06:01～07:00,0.0608,0.0521,0.0568,
江戸川 (Edogawa),2016-04-16,05:01～06:00,0.0602,0.0538,0.0568,
江戸川 (Edogawa),2016-04-16,04:01～05:00,0.0612,0.0536,0.0569,
江戸川 (Edogawa),2016-04-16,03:01～04:00,0.0604,0.0532,0.0570,
江戸川 (Edogawa),2016-04-16,02:01～03:00,0.0595,0.0541,0.0572,
江戸川 (Edogawa),2016-04-16,01:01～02:00,0.0608,0.0533,0.0570,
江戸川 (Edogawa),2016-04-16,00:01～01:00,0.0601,0.0537,0.0568,
江戸川 (Edogawa),2016-04-15,23:01～24:00,0.0605,0.0532,0.0569,
江戸川 (Edogawa),2016-04-15,22:01～23:00,0.0597,0.0530,0.0566,
江戸川 (Edogawa),2016-04-15,21:01～22:00,0.0594,0.0541,0.0566,
江戸川 (Edogawa),2016-04-15,20:01～21:00,0.0593,0.0509,0.0566,
江戸川 (Edogawa),2016-04-15,19:01～20:00,0.0603,0.0538,0.0566,
江戸川 (Edogawa),2016-04-15,18:01～19:00,0.0605,0.0534,0.0570,
江戸川 (Edogawa),2016-04-15,17:01～18:00,0.0611,0.0532,0.0571,
江戸川 (Edogawa),2016-04-15,16:01～17:00,0.0611,0.0520,0.0571,
江戸川 (Edogawa),2016-04-15,15:01～16:00,0.0603,0.0541,0.0572,
江戸川 (Edogawa),2016-04-15,14:01～15:00,0.0601,0.0543,0.0572,
江戸川 (Edogawa),2016-04-15,13:01～14:00,0.0606,0.0537,0.0570,
江戸川 (Edogawa),2016-04-15,12:01～13:00,0.0602,0.0543,0.0572,
江戸川 (Edogawa),2016-04-15,11:01～12:00,0.0601,0.0526,0.0571,
江戸川 (Edogawa),2016-04-15,10:01～11:00,0.0612,0.0540,0.0569,
江戸川 (Edogawa),2016-04-15,09:01～10:00,0.0594,0.0546,0.0569,
江戸川 (Edogawa),2016-04-15,08:01～09:00,0.0589,0.0543,0.0565,
江戸川 (Edogawa),2016-04-15,07:01～08:00,0.0606,0.0535,0.0563,
江戸川 (Edogawa),2016-04-15,06:01～07:00,0.0588,0.0515,0.0559,
江戸川 (Edogawa),2016-04-15,05:01～06:00,0.0591,0.0529,0.0559,
江戸川 (Edogawa),2016-04-15,04:01～05:00,0.0597,0.0534,0.0559,
江戸川 (Edogawa),2016-04-15,03:01～04:00,0.0599,0.0532,0.0558,
江戸川 (Edogawa),2016-04-15,02:01～03:00,0.0592,0.0532,0.0561,
江戸川 (Edogawa),2016-04-15,01:01～02:00,0.0606,0.0525,0.0560,
江戸川 (Edogawa),2016-04-15,00:01～01:00,0.0589,0.0517,0.0557,
江戸川 (Edogawa),2016-04-14,23:01～24:00,0.0591,0.0524,0.0559,
江戸川 (Edogawa),2016-04-14,22:01～23:00,0.0604,0.0525,0.0559,
江戸川 (Edogawa),2016-04-14,21:01～22:00,0.0591,0.0517,0.0558,
江戸川 (Edogawa),2016-04-14,20:01～21:00,0.0587,0.0516,0.0556,
江戸川 (Edogawa),2016-04-14,19:01～20:00,0.0601,0.0531,0.0561,
江戸川 (Edogawa),2016-04-14,18:01～19:00,0.0584,0.0529,0.0559,
江戸川 (Edogawa),2016-04-14,17:01～18:00,0.0593,0.0523,0.0560,
江戸川 (Edogawa),2016-04-14,16:01～17:00,0.0597,0.0528,0.0560,
江戸川 (Edogawa),2016-04-14,15:01～16:00,0.0585,0.0519,0.0561,
江戸川 (Edogawa),2016-04-14,14:01～15:00,0.0607,0.0540,0.0566,
江戸川 (Edogawa),2016-04-14,13:01～14:00,0.0604,0.0537,0.0565,
江戸川 (Edogawa),2016-04-14,12:01～13:00,0.0587,0.0529,0.0559,
江戸川 (Edogawa),2016-04-14,11:01～12:00,0.0609,0.0528,0.0565,
江戸川 (Edogawa),2016-04-14,10:01～11:00,0.0615,0.0537,0.0574,
江戸川 (Edogawa),2016-04-14,09:01～10:00,0.0625,0.0555,0.0584,
江戸川 (Edogawa),2016-04-14,08:01～09:00,0.0629,0.0544,0.0583,
江戸川 (Edogawa),2016-04-14,07:01～08:00,0.0602,0.0547,0.0573,
江戸川 (Edogawa),2016-04-14,06:01～07:00,0.0654,0.0561,0.0604,
江戸川 (Edogawa),2016-04-14,05:01～06:00,0.0679,0.0596,0.0631,
江戸川 (Edogawa),2016-04-14,04:01～05:00,0.0675,0.0611,0.0645,
江戸川 (Edogawa),2016-04-14,03:01～04:00,0.0671,0.0588,0.0632,
江戸川 (Edogawa),2016-04-14,02:01～03:00,0.0663,0.0582,0.0627,
江戸川 (Edogawa),2016-04-14,01:01～02:00,0.0651,0.0582,0.0617,
江戸川 (Edogawa),2016-04-14,00:01～01:00,0.0657,0.0569,0.0607,
江戸川 (Edogawa),2016-04-13,23:01～24:00,0.0626,0.0547,0.0581,
江戸川 (Edogawa),2016-04-13,22:01～23:00,0.0645,0.0566,0.0601,
江戸川 (Edogawa),2016-04-13,21:01～22:00,0.0621,0.0543,0.0584,
江戸川 (Edogawa),2016-04-13,20:01～21:00,0.0646,0.0552,0.0587,
江戸川 (Edogawa),2016-04-13,19:01～20:00,0.0624,0.0552,0.0579,
江戸川 (Edogawa),2016-04-13,18:01～19:00,0.0629,0.0535,0.0578,
江戸川 (Edogawa),2016-04-13,17:01～18:00,0.0614,0.0549,0.0580,
江戸川 (Edogawa),2016-04-13,16:01～17:00,0.0602,0.0547,0.0574,
江戸川 (Edogawa),2016-04-13,15:01～16:00,0.0617,0.0539,0.0577,
江戸川 (Edogawa),2016-04-13,14:01～15:00,0.0621,0.0537,0.0577,
江戸川 (Edogawa),2016-04-13,13:01～14:00,0.0613,0.0530,0.0574,
江戸川 (Edogawa),2016-04-13,12:01～13:00,0.0609,0.0548,0.0574,
江戸川 (Edogawa),2016-04-13,11:01～12:00,0.0612,0.0539,0.0575,
江戸川 (Edogawa),2016-04-13,10:01～11:00,0.0614,0.0554,0.0585,
江戸川 (Edogawa),2016-04-13,09:01～10:00,0.0623,0.0558,0.0591,
江戸川 (Edogawa),2016-04-13,08:01～09:00,0.0637,0.0556,0.0591,
江戸川 (Edogawa),2016-04-13,07:01～08:00,0.0632,0.0538,0.0590,
江戸川 (Edogawa),2016-04-13,06:01～07:00,0.0631,0.0562,0.0590,
江戸川 (Edogawa),2016-04-13,05:01～06:00,0.0632,0.0557,0.0594,
江戸川 (Edogawa),2016-04-13,04:01～05:00,0.0643,0.0564,0.0598,
江戸川 (Edogawa),2016-04-13,03:01～04:00,0.0645,0.0555,0.0595,
江戸川 (Edogawa),2016-04-13,02:01～03:00,0.0615,0.0544,0.0578,
江戸川 (Edogawa),2016-04-13,01:01～02:00,0.0607,0.0543,0.0577,
江戸川 (Edogawa),2016-04-13,00:01～01:00,0.0605,0.0542,0.0576,
江戸川 (Edogawa),2016-04-12,23:01～24:00,0.0606,0.0551,0.0577,
江戸川 (Edogawa),2016-04-12,22:01～23:00,0.0606,0.0547,0.0577,
江戸川 (Edogawa),2016-04-12,21:01～22:00,0.0615,0.0550,0.0574,
江戸川 (Edogawa),2016-04-12,20:01～21:00,0.0620,0.0547,0.0576,
江戸川 (Edogawa),2016-04-12,19:01～20:00,0.0606,0.0540,0.0578,
江戸川 (Edogawa),2016-04-12,18:01～19:00,0.0610,0.0547,0.0573,
江戸川 (Edogawa),2016-04-12,17:01～18:00,0.0610,0.0541,0.0576,
江戸川 (Edogawa),2016-04-12,16:01～17:00,0.0620,0.0541,0.0583,
江戸川 (Edogawa),2016-04-12,15:01～16:00,0.0607,0.0526,0.0568,
江戸川 (Edogawa),2016-04-12,14:01～15:00,0.0610,0.0543,0.0571,
江戸川 (Edogawa),2016-04-12,13:01～14:00,0.0611,0.0544,0.0575,
江戸川 (Edogawa),2016-04-12,12:01～13:00,0.0594,0.0547,0.0571,
江戸川 (Edogawa),2016-04-12,11:01～12:00,0.0605,0.0545,0.0574,
江戸川 (Edogawa),2016-04-12,10:01～11:00,0.0599,0.0540,0.0571,
江戸川 (Edogawa),2016-04-12,09:01～10:00,0.0601,0.0543,0.0570,
江戸川 (Edogawa),2016-04-12,08:01～09:00,0.0603,0.0530,0.0570,
江戸川 (Edogawa),2016-04-12,07:01～08:00,0.0599,0.0547,0.0572,
江戸川 (Edogawa),2016-04-12,06:01～07:00,0.0603,0.0540,0.0574,
江戸川 (Edogawa),2016-04-12,05:01～06:00,0.0597,0.0532,0.0566,
江戸川 (Edogawa),2016-04-12,04:01～05:00,0.0604,0.0530,0.0568,
江戸川 (Edogawa),2016-04-12,03:01～04:00,0.0607,0.0534,0.0567,
江戸川 (Edogawa),2016-04-12,02:01～03:00,0.0603,0.0525,0.0567,
江戸川 (Edogawa),2016-04-12,01:01～02:00,0.0606,0.0542,0.0568,
江戸川 (Edogawa),2016-04-12,00:01～01:00,0.0596,0.0538,0.0570,
江戸川 (Edogawa),2016-04-11,23:01～24:00,0.0598,0.0541,0.0568,
江戸川 (Edogawa),2016-04-11,22:01～23:00,0.0607,0.0541,0.0572,
江戸川 (Edogawa),2016-04-11,21:01～22:00,0.0604,0.0539,0.0569,
江戸川 (Edogawa),2016-04-11,20:01～21:00,0.0619,0.0521,0.0569,
江戸川 (Edogawa),2016-04-11,19:01～20:00,0.0611,0.0522,0.0568,
江戸川 (Edogawa),2016-04-11,18:01～19:00,0.0607,0.0547,0.0571,
江戸川 (Edogawa),2016-04-11,17:01～18:00,0.0603,0.0527,0.0571,
江戸川 (Edogawa),2016-04-11,16:01～17:00,0.0615,0.0529,0.0575,
江戸川 (Edogawa),2016-04-11,15:01～16:00,0.0610,0.0545,0.0574,
江戸川 (Edogawa),2016-04-11,14:01～15:00,0.0604,0.0541,0.0574,
江戸川 (Edogawa),2016-04-11,13:01～14:00,0.0605,0.0543,0.0571,
江戸川 (Edogawa),2016-04-11,12:01～13:00,0.0609,0.0551,0.0579,
江戸川 (Edogawa),2016-04-11,11:01～12:00,0.0612,0.0551,0.0582,
江戸川 (Edogawa),2016-04-11,10:01～11:00,0.0615,0.0546,0.0584,
江戸川 (Edogawa),2016-04-11,09:01～10:00,0.0612,0.0554,0.0584,
江戸川 (Edogawa),2016-04-11,08:01～09:00,0.0612,0.0537,0.0571,
江戸川 (Edogawa),2016-04-11,07:01～08:00,0.0619,0.0536,0.0573,
江戸川 (Edogawa),2016-04-11,06:01～07:00,0.0596,0.0534,0.0571,
江戸川 (Edogawa),2016-04-11,05:01～06:00,0.0616,0.0534,0.0571,
江戸川 (Edogawa),2016-04-11,04:01～05:00,0.0601,0.0527,0.0573,
江戸川 (Edogawa),2016-04-11,03:01～04:00,0.0604,0.0531,0.0570,
江戸川 (Edogawa),2016-04-11,02:01～03:00,0.0601,0.0534,0.0569,
江戸川 (Edogawa),2016-04-11,01:01～02:00,0.0597,0.0538,0.0567,
江戸川 (Edogawa),2016-04-11,00:01～01:00,0.0601,0.0532,0.0571,
